Regional Weather Roundup
Issued by NWS Grand Forks, ND

Home | Current Version | Previous Version | Graphics & Text | Print | Product List | Glossary On
Versions: 1 2 3 4 5 6 7 8 9 10 11 12 13 14 15 16 17 18 19 20 21 22 23 24 25 26 27 28 29 30 31 32 33 34 35 36 37 38 39 40 41 42 43 44 45 46 47 48 49 50
000
ASUS43 KFGF 232231
RWRFGF
PRAIRIE TO PINES  WEATHER ROUNDUP
NATIONAL WEATHER SERVICE EASTERN NORTH DAKOTA/GRAND FORKS ND
500 PM CDT MON OCT 23 2017

 **SATELLITE DATA USED TO AUGMENT SKY COVER AT AUTOMATED STATIONS**
 *****  WEATHER ACROSS EASTERN NORTH DAKOTA  *****

CITY           SKY/WX    TMP DP  RH WIND       PRES   REMARKS
GRAND FORKS    FAIR      49  33  54 N20       29.99R
GRAND FRKS AFB CLOUDY    52  28  40 N16       29.99R
DEVILS LAKE    PTSUNNY   46  32  58 NW22G29   30.05R
FARGO          PTSUNNY   55  30  38 N24G36    29.96R
WAHPETON ARPT  NOT AVBL
$$

 ***** WEATHER ACROSS CENTRAL AND WESTERN NORTH DAKOTA  *****

CITY           SKY/WX    TMP DP  RH WIND       PRES   REMARKS
BISMARCK       CLOUDY    55  27  34 NW26G36   30.15R
MINOT          FAIR      50  33  52 NW24G35   30.16R
JAMESTOWN      PTSUNNY   52  34  50 NW30G40   30.03R
MINOT AFB      FAIR      51  31  47 NW30G37   30.14R
GARRISON         N/A     50  30  46 NW33G46   30.16R
WILLISTON      LGT RAIN  56  25  30 NW32G43   30.28R
DICKINSON      FAIR      55  24  30 NW37G49   30.23R
HETTINGER      FAIR      55  23  28 NW36G49   30.26R
$$

 *****  OTHER AIRPORT OBSERVATIONS IN OUR AREA  *****

CITY           SKY/WX    TMP DP  RH WIND       PRES   REMARKS
WALHALLA       FAIR     N/A N/A N/A N22       30.05R
GRAFTON AIRPOR FAIR      45  28  53 N21G30    30.04R
VALLEY CITY AR MOCLDY    50  34  53 N21G31    30.03R
CANDO          FAIR      48  28  46 NW23G31   30.10R
CAVALIER APRT  FAIR      46  32  57 N21G28    30.04R
GWINNER        MOCLDY    54  32  43 NW25G31   30.01R
SHEYENNE NWR     N/A     55  32  42 NW18      29.95S
ROLLA          FAIR      45  28  53 NW24      30.09R
 ***** THE ABOVE OBSERVATIONS ARE NON NWS ARE NOT QUALITY
       CONTROLLED AND MAY MIS-REPORT RAIN FOR SNOW...
$$

  *****  WEATHER ACROSS NORTHERN MINNESOTA  *****

CITY           SKY/WX    TMP DP  RH WIND       PRES   REMARKS
FLAG ISLAND    FAIR      43  36  75 NW22      29.93R
WARROAD        CLOUDY    43  32  65 NW17G23   29.96R
ROSEAU         CLOUDY    43  32  65 NW21      29.97R
HALLOCK        FAIR      45  28  53 N20G35    30.03R
THF RVR FALLS  FAIR      46  29  51 N24G31    29.98R
BAUDETTE       CLOUDY    45  32  60 NW18G29   29.90R
WASKISH        CLOUDY    46  32  57 N14G24    29.90R
CROOKSTON      FAIR      46  30  53 N23G29    30.00R
STEPHEN NDAWN    N/A     45  28  53 N20         N/A
GREENBUSH NDAW   N/A     43  27  52 N17         N/A
$$
  *****  WEATHER ACROSS CENTRAL AND WEST MINNESOTA  *****

CITY           SKY/WX    TMP DP  RH WIND       PRES   REMARKS
FOSSTON        FAIR      46  28  49 NW17G25   29.96S
BEMIDJI        FAIR      44  27  52 NW21      29.90S
PARK RAPIDS    FAIR      48  30  49 NW18G29   29.89S
ELBOW LAKE     FAIR      52  32  45 W24G30    29.95R
WADENA         FAIR      48  30  49 NW18G24   29.90S
DETROIT LAKES  FAIR      48  32  53 N18G28    29.95S
MOORHEAD       FAIR      54  27  35 NW17G28   29.97R
FERGUS FALLS   FAIR      52  30  43 NW16G25   29.96R
MORRIS MN      FAIR      55  28  35 N25G32    29.94S
STAPLES        FAIR      46  27  46 NW18G25   29.89R
$$
  *****  WEATHER ELSEWHERE ACROSS MINNESOTA  *****

CITY           SKY/WX    TMP DP  RH WIND       PRES   REMARKS
DULUTH         CLOUDY    47  43  86 NW16G24   29.74R
INTRNTL FALLS  CLOUDY    44  35  70 NW20G26   29.84R
ELY            CLOUDY    46  39  76 NW15G22   29.75R
CLOQUET        CLOUDY    46  39  76 NW17G26   29.77R
WHEATON        FAIR      54  28  37 NW16G29   29.99R
BRAINERD       CLOUDY    48  31  51 NW18G26   29.85F
HIBBING        CLOUDY    44  41  89 NW21G28   29.78R
ALEXANDRIA     FAIR      52  32  46 N14G30    29.92F
SAINT CLOUD    CLOUDY    48  33  56 NW20G30   29.85R
MINNEAPOLIS    CLOUDY    51  41  68 NW21G32   29.82R
$$

  *****  WEATHER ACROSS SOUTH DAKOTA  *****

CITY           SKY/WX    TMP DP  RH WIND       PRES   REMARKS
SIOUX FALLS    PTSUNNY   55  28  35 NW24G43   30.02S
BROOKINGS      FAIR      52  29  41 NW21G32   30.01R
WATERTOWN      FAIR      52  34  50 NW21G28   30.01R
HURON          PTSUNNY   55  32  41 NW23G31   30.07R
SISSETON         N/A     56  31  38 NW25G37   29.97R
ABERDEEN       CLOUDY    55  33  43 NW22G35   30.06R
MITCHELL       FAIR      56  32  40 NW24G32   30.09S
PIERRE         PTSUNNY   57  32  38 N21G35    30.16R
MOBRIDGE       NOT AVBL
RAPID CITY     PTSUNNY   55  16  21 NW29G43   30.33R
$$

  *****  SOME WEATHER IN NEARBY STATES *****

CITY           SKY/WX    TMP DP  RH WIND       PRES   REMARKS
GLASGOW MT     FAIR      57  24  28 NW25G35   30.39R
GREAT FALLS MT FAIR      56  15  20 W14G22    30.53R
CHEYENNE WY    FAIR      52  15  23 N22G36    30.40S
SCOTTSBLUFF NE PTSUNNY   57  18  21 NW28G35   30.38R
OMAHA NE       PTSUNNY   59  32  36 NW31G40   30.01R
DES MOINES IA  LGT RAIN  58  34  40 NW24G45   29.89R
DAVENPORT IA   CLOUDY    58  44  60 NW9       29.77S
CHICAGO IL     CLOUDY    53  47  79 W10       29.68F
EAU CLAIRE WI  LGT RAIN  58  38  47 NW14G26   29.69S
LA CROSSE WI   PTSUNNY   56  47  71 S5        29.72S
$$

  *****  SOME NATIONAL WEATHER *****

CITY           SKY/WX    TMP DP  RH WIND       PRES   REMARKS
LA GUARDIA NY  MOCLDY    72  61  68 SE15G21   30.11F
RALEIGH NC     CLOUDY    74  61  63 SE21G33   29.83F
ATLANTA GA     FAIR      68  52  56 W15G21    29.88S
NEW ORLEANS LA FAIR      74  46  36 N12       30.00S
OKLAHOMA CITY  FAIR      71  41  33 N21       30.12R
ALBUQUERQUE NM FAIR      76  25  15 NW20      30.32S
SALT LAKE CITY PTSUNNY   65  36  34 N14       30.57F
LOS ANGELES CA FAIR      97  30   9 W10       30.00F HX  91
BOISE ID       FAIR      59  35  40 N10       30.65S
SEATTLE WA     PTSUNNY   63  46  54 W3        30.63S
$$

*** WEATHER ACROSS MANITOBA...SASKATCHEWAN AND ONTARIO ***
                ***ONTARIO***

CITY           SKY/WX    TMP DP  RH WIND       PRES   REMARKS
GERALDTON      PTCLDY    54  36  50 S7        29.73S
THUNDER BAY    MOCLDY    55  45  67 E9        29.67R
SIOUX LOOKOUT  LGT RAIN  41  39  93 NW12      29.82R
TORONTO        LGT RAIN  63  59  88 SE12G23   29.75F
BIG TROUT LK   MOCLDY    41  32  70 NW10      29.86R
PICKLE LAKE    LGT RAIN  45  37  76 N6        29.79R
DRYDEN         CLOUDY    39  36  87 NW8G17    29.84R
KENORA         MOCLDY    41  30  65 N14G22    29.90R
$$
                *** MANITOBA***

CITY           SKY/WX    TMP DP  RH WIND       PRES   REMARKS
BRANDON        MOSUNNY   48  25  40 NW25G32   30.10R
DAUPHIN        SUNNY     46  30  53 NW8       30.13R
ISLAND LAKE    FLURRIES  37  30  75 NW18      29.98
PILOT MOUND      N/A     46  23  39 NW20G29     N/A
THE PAS        MOSUNNY   41  28  60 NW18G24   30.13R
THOMPSON       MOCLDY    36  28  75 NW9       30.05R
WINNIPEG       PTSUNNY   41  28  60 N17G24    30.05R
LYNN LAKE      CLOUDY    32  28  86 NW8G17    30.07R WCI  25
CHURCHILL      PTCLDY    27  21  80 NW31G40   29.84R WCI  10
GILLAM         MOCLDY    30  23  74 NW17G25   29.97R WCI  18
$$
                ***SASKATCHEWAN***

CITY           SKY/WX    TMP DP  RH WIND       PRES   REMARKS
ESTEVAN        MOSUNNY   52  30  43 NW26G37   30.23R
KINDERSLEY     MOSUNNY   52  27  37 W18G26    30.36R
LLOYDMINSTER   MOSUNNY   50  28  43 NW17G25   30.30R
PRINCE ALBERT  MOSUNNY   48  32  53 N14       30.24R
REGINA         MOSUNNY   52  30  43 NW26G33   30.27R
YORKTON        SUNNY     46  32  57 NW18G24   30.18R
N. BATTLEFORD  SUNNY     52  30  43 W20G26    30.31R
LA RONGE       CLOUDY    39  32  75 W13G18    30.21R
SASKATOON      MOSUNNY   52  32  46 NW20G26   30.28R
SWIFT CURRENT  SUNNY     50  27  40 NW23G31   30.35S
$$
NOTE: THESE ARE AUTOMATED STATIONS WITH LIMITED QUALITY CONTROL
      "FAIR" INDICATES FEW OR NO CLOUDS BELOW 12,000 FEET WITH NO
      SIGNIFICANT WEATHER AND/OR OBSTRUCTIONS TO VISIBILITY.
      SKY/WX - SKY CONDITION AND SIGNIFICANT WEATHER.
      TMP - AIR TEMPERATURE.    DP   - DEWPOINT TEMPERATURE.
      RH  - RELATIVE HUMIDITY.  PRES - PRESSURE.
      HX  - HEAT INDEX.         WCI  - WIND CHILL INDEX.
$




USA.gov is the U.S. government's official web portal to all federal, state and local government web resources and services.